Time,TemperatureF,DewpointF,PressureIn,WindDirection,WindDirectionDegrees,WindSpeedMPH,WindSpeedGustMPH,Humidity,HourlyPrecipIn,Conditions,Clouds,dailyrainin,SoftwareType,DateUTC
2013-11-01 00:00:00,75.3,72.5,30.00,ESE,120,0.0,0.0,91,0.00,CLR,,0.00,WeatherDisplay:10.37,2013-11-01 04:00:00,
2013-11-01 00:01:00,75.3,72.5,30.00,ESE,120,0.0,0.0,91,0.00,CLR,,0.00,WeatherDisplay:10.37,2013-11-01 04:01:00,
2013-11-01 00:03:00,75.3,72.8,30.00,ESE,120,0.0,0.0,92,0.00,CLR,,0.00,WeatherDisplay:10.37,2013-11-01 04:03:00,
2013-11-01 00:08:00,75.1,72.6,30.00,ESE,120,0.0,0.0,92,0.00,CLR,,0.00,WeatherDisplay:10.37,2013-11-01 04:08:00,
2013-11-01 00:13:00,75.0,72.5,30.00,ESE,120,0.0,0.0,92,0.00,CLR,,0.00,WeatherDisplay:10.37,2013-11-01 04:13:00,
2013-11-01 00:18:00,74.8,72.0,30.00,ESE,120,0.0,0.0,91,0.00,CLR,,0.00,WeatherDisplay:10.37,2013-11-01 04:18:00,
2013-11-01 00:23:00,74.7,72.2,30.00,ESE,120,0.0,0.0,92,0.00,CLR,,0.00,WeatherDisplay:10.37,2013-11-01 04:23:00,
2013-11-01 00:28:00,74.7,72.5,30.00,ESE,120,0.0,0.0,93,0.00,CLR,,0.00,WeatherDisplay:10.37,2013-11-01 04:28:00,
2013-11-01 00:33:00,74.7,72.5,30.00,ESE,120,0.0,0.0,93,0.00,CLR,,0.00,WeatherDisplay:10.37,2013-11-01 04:33:00,
2013-11-01 00:38:00,74.7,72.5,30.00,ESE,120,0.1,1.2,93,0.00,CLR,,0.00,WeatherDisplay:10.37,2013-11-01 04:38:00,
2013-11-01 00:43:00,74.6,72.4,30.00,ESE,120,0.5,2.3,93,0.00,CLR,,0.00,WeatherDisplay:10.37,2013-11-01 04:43:00,
2013-11-01 00:48:00,74.8,72.6,29.99,ESE,120,0.7,1.2,93,0.00,CLR,,0.00,WeatherDisplay:10.37,2013-11-01 04:48:00,
2013-11-01 00:53:00,75.1,72.9,29.99,ESE,120,0.3,4.6,93,0.00,CLR,,0.00,WeatherDisplay:10.37,2013-11-01 04:53:00,
2013-11-01 00:58:00,75.8,73.3,29.99,ESE,120,3.6,4.6,92,0.00,CLR,,0.00,WeatherDisplay:10.37,2013-11-01 04:58:00,
2013-11-01 01:03:00,76.5,73.7,29.99,ESE,120,3.3,4.6,91,0.00,CLR,,0.00,WeatherDisplay:10.37,2013-11-01 05:03:00,
2013-11-01 01:08:00,77.1,73.6,29.99,ESE,121,2.7,4.6,89,0.00,CLR,,0.00,WeatherDisplay:10.37,2013-11-01 05:08:00,
2013-11-01 01:13:00,77.6,73.8,29.99,ESE,122,1.1,8.1,88,0.00,CLR,,0.00,WeatherDisplay:10.37,2013-11-01 05:13:00,
2013-11-01 01:19:00,77.8,73.3,29.99,SE,128,5.3,6.9,86,0.00,CLR,,0.00,WeatherDisplay:10.37,2013-11-01 05:19:00,
2013-11-01 01:24:00,78.1,73.6,29.98,SE,132,3.8,5.0,86,0.00,CLR,,0.00,WeatherDisplay:10.37,2013-11-01 05:24:00,
2013-11-01 01:29:00,78.2,73.3,29.98,SE,134,2.3,3.5,85,0.00,CLR,,0.00,WeatherDisplay:10.37,2013-11-01 05:29:00,
2013-11-01 01:34:00,78.2,73.3,29.98,SE,134,1.3,3.5,85,0.00,CLR,,0.00,WeatherDisplay:10.37,2013-11-01 05:34:00,
2013-11-01 01:39:00,78.1,73.2,29.98,SE,136,1.0,2.3,85,0.00,CLR,,0.00,WeatherDisplay:10.37,2013-11-01 05:39:00,
2013-11-01 01:44:00,78.1,73.2,29.98,SE,136,1.1,2.3,85,0.00,CLR,,0.00,WeatherDisplay:10.37,2013-11-01 05:44:00,
2013-11-01 01:45:00,78.0,73.1,29.98,SE,136,1.4,2.3,85,0.00,CLR,,0.00,WeatherDisplay:10.37,2013-11-01 05:45:00,
2013-11-01 01:50:00,78.0,73.1,29.98,SE,136,3.8,4.6,85,0.00,CLR,,0.00,WeatherDisplay:10.37,2013-11-01 05:50:00,
2013-11-01 01:55:00,78.0,73.1,29.98,SE,130,2.3,4.6,85,0.00,CLR,,0.00,WeatherDisplay:10.37,2013-11-01 05:55:00,
2013-11-01 02:00:00,78.0,73.1,29.98,SE,131,2.0,3.5,85,0.00,CLR,,0.00,WeatherDisplay:10.37,2013-11-01 06:00:00,
2013-11-01 02:05:00,77.9,73.0,29.98,SE,131,0.7,2.3,85,0.00,CLR,,0.00,WeatherDisplay:10.37,2013-11-01 06:05:00,
2013-11-01 02:10:00,77.9,73.0,29.98,SE,132,1.3,4.6,85,0.00,CLR,,0.00,WeatherDisplay:10.37,2013-11-01 06:10:00,
2013-11-01 02:15:00,77.8,73.3,29.97,SE,132,0.2,1.2,86,0.00,CLR,,0.00,WeatherDisplay:10.37,2013-11-01 06:15:00,
2013-11-01 02:20:00,77.8,73.3,29.97,SE,132,0.0,0.0,86,0.00,CLR,,0.00,WeatherDisplay:10.37,2013-11-01 06:20:00,
2013-11-01 02:25:00,77.6,73.1,29.97,SE,132,0.1,1.2,86,0.00,CLR,,0.00,WeatherDisplay:10.37,2013-11-01 06:25:00,
2013-11-01 02:30:00,77.5,73.0,29.97,SE,132,0.0,0.0,86,0.00,CLR,,0.00,WeatherDisplay:10.37,2013-11-01 06:30:00,
2013-11-01 02:35:00,77.3,73.1,29.97,SE,132,0.0,0.0,87,0.00,CLR,,0.00,WeatherDisplay:10.37,2013-11-01 06:35:00,
2013-11-01 02:40:00,77.1,72.9,29.97,SE,132,0.0,0.0,87,0.00,CLR,,0.00,WeatherDisplay:10.37,2013-11-01 06:40:00,
2013-11-01 02:45:00,76.9,72.7,29.97,SE,132,1.0,2.3,87,0.00,CLR,,0.00,WeatherDisplay:10.37,2013-11-01 06:45:00,
2013-11-01 02:50:00,76.8,72.6,29.97,SE,132,0.1,1.2,87,0.00,CLR,,0.00,WeatherDisplay:10.37,2013-11-01 06:50:00,
2013-11-01 02:55:00,76.8,72.6,29.97,SE,132,1.3,2.3,87,0.00,CLR,,0.00,WeatherDisplay:10.37,2013-11-01 06:55:00,
2013-11-01 03:00:00,76.8,72.6,29.97,SE,132,0.7,2.3,87,0.00,CLR,,0.00,WeatherDisplay:10.37,2013-11-01 07:00:00,
2013-11-01 03:05:00,76.9,72.7,29.96,SE,132,0.1,1.2,87,0.00,CLR,,0.00,WeatherDisplay:10.37,2013-11-01 07:05:00,
2013-11-01 03:10:00,76.8,72.6,29.96,SE,132,0.2,1.2,87,0.00,CLR,,0.00,WeatherDisplay:10.37,2013-11-01 07:10:00,
2013-11-01 03:15:00,76.8,72.6,29.96,SE,132,0.2,1.2,87,0.00,CLR,,0.00,WeatherDisplay:10.37,2013-11-01 07:15:00,
2013-11-01 03:20:00,76.7,72.5,29.96,SE,132,0.1,1.2,87,0.00,CLR,,0.00,WeatherDisplay:10.37,2013-11-01 07:20:00,
2013-11-01 03:25:00,76.6,72.4,29.96,SE,132,0.2,1.2,87,0.00,CLR,,0.00,WeatherDisplay:10.37,2013-11-01 07:25:00,
2013-11-01 03:30:00,76.5,72.3,29.96,SE,132,0.0,0.0,87,0.00,CLR,,0.00,WeatherDisplay:10.37,2013-11-01 07:30:00,
2013-11-01 03:35:00,76.5,72.3,29.96,SE,132,0.2,0.0,87,0.00,CLR,,0.00,WeatherDisplay:10.37,2013-11-01 07:35:00,
2013-11-01 03:40:00,76.4,72.6,29.95,SE,132,0.0,1.2,88,0.00,CLR,,0.00,WeatherDisplay:10.37,2013-11-01 07:40:00,
2013-11-01 03:45:00,76.3,72.8,29.95,SE,132,0.0,0.0,89,0.00,CLR,,0.00,WeatherDisplay:10.37,2013-11-01 07:45:00,
2013-11-01 03:50:00,76.1,72.6,29.95,SE,132,0.0,0.0,89,0.00,CLR,,0.00,WeatherDisplay:10.37,2013-11-01 07:50:00,
2013-11-01 03:55:00,75.9,72.4,29.95,SE,132,0.0,0.0,89,0.00,CLR,,0.00,WeatherDisplay:10.37,2013-11-01 07:55:00,
2013-11-01 04:00:00,75.6,72.1,29.95,SE,132,0.0,0.0,89,0.00,CLR,,0.00,WeatherDisplay:10.37,2013-11-01 08:00:00,
2013-11-01 04:05:00,75.4,72.3,29.95,SE,132,0.0,0.0,90,0.00,CLR,,0.00,WeatherDisplay:10.37,2013-11-01 08:05:00,
2013-11-01 04:10:00,75.3,72.2,29.95,SE,132,0.0,0.0,90,0.00,CLR,,0.00,WeatherDisplay:10.37,2013-11-01 08:10:00,
2013-11-01 04:15:00,75.1,72.3,29.95,SE,132,0.0,0.0,91,0.00,CLR,,0.00,WeatherDisplay:10.37,2013-11-01 08:15:00,
2013-11-01 04:20:00,74.9,72.1,29.95,SE,132,0.0,0.0,91,0.00,CLR,,0.00,WeatherDisplay:10.37,2013-11-01 08:20:00,
2013-11-01 04:25:00,74.6,71.8,29.95,SE,132,0.0,0.0,91,0.00,CLR,,0.00,WeatherDisplay:10.37,2013-11-01 08:25:00,
2013-11-01 04:30:00,74.5,71.7,29.95,SE,132,0.0,0.0,91,0.00,CLR,,0.00,WeatherDisplay:10.37,2013-11-01 08:30:00,
2013-11-01 04:35:00,74.3,71.8,29.95,SE,132,0.0,1.0,92,0.00,CLR,,0.00,WeatherDisplay:10.37,2013-11-01 08:35:00,
2013-11-01 04:40:00,74.2,71.7,29.95,SE,132,0.0,0.0,92,0.00,CLR,,0.00,WeatherDisplay:10.37,2013-11-01 08:40:00,
2013-11-01 04:45:00,74.0,71.5,29.95,SE,132,0.0,0.0,92,0.00,CLR,,0.00,WeatherDisplay:10.37,2013-11-01 08:45:00,
2013-11-01 04:50:00,73.8,71.3,29.95,SE,132,0.0,0.0,92,0.00,CLR,,0.00,WeatherDisplay:10.37,2013-11-01 08:50:00,
2013-11-01 04:55:00,73.7,71.2,29.95,SE,132,0.0,0.0,92,0.00,CLR,,0.00,WeatherDisplay:10.37,2013-11-01 08:55:00,
2013-11-01 05:00:00,73.6,71.4,29.95,SE,132,0.0,0.0,93,0.00,CLR,,0.00,WeatherDisplay:10.37,2013-11-01 09:00:00,
2013-11-01 05:05:00,73.4,71.3,29.95,SE,132,0.0,0.0,93,0.00,CLR,,0.00,WeatherDisplay:10.37,2013-11-01 09:05:00,
2013-11-01 05:10:00,73.2,70.7,29.95,SE,132,0.0,0.0,92,0.00,CLR,,0.00,WeatherDisplay:10.37,2013-11-01 09:10:00,
2013-11-01 05:15:00,73.1,71.0,29.95,SE,132,0.0,0.0,93,0.00,CLR,,0.00,WeatherDisplay:10.37,2013-11-01 09:15:00,
2013-11-01 05:20:00,73.0,70.9,29.95,SE,132,0.0,0.0,93,0.00,CLR,,0.00,WeatherDisplay:10.37,2013-11-01 09:20:00,
2013-11-01 05:26:00,73.0,71.2,29.95,SE,132,0.0,0.0,94,0.00,CLR,,0.00,WeatherDisplay:10.37,2013-11-01 09:26:00,
2013-11-01 05:31:00,72.8,71.0,29.95,SE,132,0.0,0.0,94,0.00,CLR,,0.00,WeatherDisplay:10.37,2013-11-01 09:31:00,
2013-11-01 05:36:00,72.6,70.5,29.95,SE,132,0.0,0.0,93,0.00,CLR,,0.00,WeatherDisplay:10.37,2013-11-01 09:36:00,
2013-11-01 05:41:00,72.6,70.8,29.96,SE,132,0.0,0.0,94,0.00,CLR,,0.00,WeatherDisplay:10.37,2013-11-01 09:41:00,
2013-11-01 05:46:00,72.6,70.8,29.96,SE,132,0.0,0.0,94,0.00,CLR,,0.00,WeatherDisplay:10.37,2013-11-01 09:46:00,
2013-11-01 05:51:00,72.5,70.7,29.96,SE,132,0.0,0.0,94,0.00,CLR,,0.00,WeatherDisplay:10.37,2013-11-01 09:51:00,
2013-11-01 05:56:00,72.5,70.7,29.96,SE,132,0.0,0.0,94,0.00,CLR,,0.00,WeatherDisplay:10.37,2013-11-01 09:56:00,
2013-11-01 06:01:00,72.5,71.0,29.96,SE,132,0.0,0.0,95,0.00,CLR,,0.00,WeatherDisplay:10.37,2013-11-01 10:01:00,
2013-11-01 06:06:00,72.5,71.0,29.96,SE,132,0.0,0.0,95,0.00,CLR,,0.00,WeatherDisplay:10.37,2013-11-01 10:06:00,
2013-11-01 06:11:00,72.5,71.0,29.96,SE,132,0.0,0.0,95,0.00,CLR,,0.00,WeatherDisplay:10.37,2013-11-01 10:11:00,
2013-11-01 06:16:00,72.5,71.0,29.96,SE,132,0.0,0.0,95,0.00,CLR,,0.00,WeatherDisplay:10.37,2013-11-01 10:16:00,
2013-11-01 06:21:00,72.4,70.9,29.96,SE,132,0.0,0.0,95,0.00,CLR,,0.00,WeatherDisplay:10.37,2013-11-01 10:21:00,
2013-11-01 06:26:00,72.2,70.7,29.96,SE,132,0.0,0.0,95,0.00,CLR,,0.00,WeatherDisplay:10.37,2013-11-01 10:26:00,
2013-11-01 06:31:00,72.1,70.6,29.96,SE,132,0.0,0.0,95,0.00,CLR,,0.00,WeatherDisplay:10.37,2013-11-01 10:31:00,
2013-11-01 06:36:00,72.1,70.6,29.96,SE,132,0.0,0.0,95,0.00,CLR,,0.00,WeatherDisplay:10.37,2013-11-01 10:36:00,
2013-11-01 06:41:00,72.1,70.6,29.96,SE,132,0.0,0.0,95,0.00,CLR,,0.00,WeatherDisplay:10.37,2013-11-01 10:41:00,
2013-11-01 06:46:00,72.0,70.5,29.96,SE,132,0.0,0.0,95,0.00,CLR,,0.00,WeatherDisplay:10.37,2013-11-01 10:46:00,
2013-11-01 06:51:00,71.8,70.3,29.96,SE,132,0.0,0.0,95,0.00,CLR,,0.00,WeatherDisplay:10.37,2013-11-01 10:51:00,
2013-11-01 06:56:00,71.7,70.2,29.97,SE,132,0.0,0.0,95,0.00,CLR,,0.00,WeatherDisplay:10.37,2013-11-01 10:56:00,
2013-11-01 07:01:00,71.7,70.2,29.97,SE,132,0.0,0.0,95,0.00,CLR,,0.00,WeatherDisplay:10.37,2013-11-01 11:01:00,
2013-11-01 07:06:00,71.6,70.1,29.97,SE,132,0.0,0.0,95,0.00,CLR,,0.00,WeatherDisplay:10.37,2013-11-01 11:06:00,
2013-11-01 07:11:00,71.6,70.4,29.97,SE,132,0.0,0.0,96,0.00,CLR,,0.00,WeatherDisplay:10.37,2013-11-01 11:11:00,
2013-11-01 07:16:00,71.5,70.3,29.97,SE,132,0.0,0.0,96,0.00,CLR,,0.00,WeatherDisplay:10.37,2013-11-01 11:16:00,
2013-11-01 07:21:00,71.5,70.0,29.97,SE,132,0.0,0.0,95,0.00,CLR,,0.00,WeatherDisplay:10.37,2013-11-01 11:21:00,
2013-11-01 07:26:00,71.6,70.4,29.97,SE,132,0.0,0.0,96,0.00,CLR,,0.00,WeatherDisplay:10.37,2013-11-01 11:26:00,
2013-11-01 07:31:00,71.5,70.3,29.97,SE,132,0.0,0.0,96,0.00,CLR,,0.00,WeatherDisplay:10.37,2013-11-01 11:31:00,
2013-11-01 07:36:00,71.4,70.2,29.98,SE,132,0.0,0.0,96,0.00,CLR,,0.00,WeatherDisplay:10.37,2013-11-01 11:36:00,
2013-11-01 07:41:00,71.4,70.2,29.98,SE,132,0.0,0.0,96,0.00,CLR,,0.00,WeatherDisplay:10.37,2013-11-01 11:41:00,
2013-11-01 07:46:00,71.5,70.3,29.98,SE,132,0.0,0.0,96,0.00,CLR,,0.00,WeatherDisplay:10.37,2013-11-01 11:46:00,
2013-11-01 07:51:00,71.3,70.1,29.98,SE,132,0.0,0.0,96,0.00,CLR,,0.00,WeatherDisplay:10.37,2013-11-01 11:51:00,
2013-11-01 07:56:00,71.3,70.1,29.98,SE,132,0.0,0.0,96,0.00,CLR,,0.00,WeatherDisplay:10.37,2013-11-01 11:56:00,
2013-11-01 08:01:00,71.4,70.2,29.99,SE,132,0.0,0.0,96,0.00,CLR,,0.00,WeatherDisplay:10.37,2013-11-01 12:01:00,
2013-11-01 08:06:00,71.5,70.3,29.99,SE,132,0.0,0.0,96,0.00,CLR,,0.00,WeatherDisplay:10.37,2013-11-01 12:06:00,
2013-11-01 08:11:00,71.6,70.7,29.99,SE,132,0.0,0.0,97,0.00,CLR,,0.00,WeatherDisplay:10.37,2013-11-01 12:11:00,
2013-11-01 08:16:00,72.0,71.1,29.99,SE,132,0.0,0.0,97,0.00,CLR,,0.00,WeatherDisplay:10.37,2013-11-01 12:16:00,
2013-11-01 08:21:00,72.5,71.6,29.99,SE,132,0.0,0.0,97,0.00,CLR,,0.00,WeatherDisplay:10.37,2013-11-01 12:21:00,
2013-11-01 08:26:00,73.2,72.3,29.99,SE,132,0.0,0.0,97,0.00,CLR,,0.00,WeatherDisplay:10.37,2013-11-01 12:26:00,
2013-11-01 08:31:00,73.8,72.9,29.99,SE,132,0.0,0.0,97,0.00,CLR,,0.00,WeatherDisplay:10.37,2013-11-01 12:31:00,
2013-11-01 08:36:00,74.3,73.4,29.99,SE,132,0.0,0.0,97,0.00,CLR,,0.00,WeatherDisplay:10.37,2013-11-01 12:36:00,
2013-11-01 08:41:00,75.0,74.1,29.99,SE,132,0.0,0.0,97,0.00,CLR,,0.00,WeatherDisplay:10.37,2013-11-01 12:41:00,
2013-11-01 08:46:00,75.7,74.5,29.99,SE,132,0.0,0.0,96,0.00,CLR,,0.00,WeatherDisplay:10.37,2013-11-01 12:46:00,
2013-11-01 08:51:00,76.4,74.9,29.99,SE,132,0.0,0.0,95,0.00,CLR,,0.00,WeatherDisplay:10.37,2013-11-01 12:51:00,
2013-11-01 08:56:00,77.1,74.9,30.00,SE,132,0.0,0.0,93,0.00,CLR,,0.00,WeatherDisplay:10.37,2013-11-01 12:56:00,
2013-11-01 09:01:00,77.9,75.4,30.00,SE,132,0.0,0.0,92,0.00,CLR,,0.00,WeatherDisplay:10.37,2013-11-01 13:01:00,
2013-11-01 09:06:00,78.8,75.9,30.00,SE,132,1.1,2.3,91,0.00,CLR,,0.00,WeatherDisplay:10.37,2013-11-01 13:06:00,
2013-11-01 09:11:00,79.3,75.1,30.00,North,355,0.5,1.2,87,0.00,CLR,,0.00,WeatherDisplay:10.37,2013-11-01 13:11:00,
2013-11-01 09:16:00,79.6,75.0,30.00,NNE,24,0.0,2.3,86,0.00,CLR,,0.00,WeatherDisplay:10.37,2013-11-01 13:16:00,
2013-11-01 09:21:00,80.1,74.8,30.00,ENE,63,0.6,2.3,84,0.00,CLR,,0.00,WeatherDisplay:10.37,2013-11-01 13:21:00,
2013-11-01 09:26:00,80.5,74.9,30.00,SE,146,1.3,2.3,83,0.00,CLR,,0.00,WeatherDisplay:10.37,2013-11-01 13:26:00,
2013-11-01 09:31:00,80.8,74.8,30.00,East,99,2.1,3.5,82,0.00,CLR,,0.00,WeatherDisplay:10.37,2013-11-01 13:31:00,
2013-11-01 09:36:00,81.0,75.0,30.00,SE,126,3.4,4.6,82,0.00,CLR,,0.00,WeatherDisplay:10.37,2013-11-01 13:36:00,
2013-11-01 09:41:00,80.9,74.5,30.00,SSE,165,3.6,4.6,81,0.00,CLR,,0.00,WeatherDisplay:10.37,2013-11-01 13:41:00,
2013-11-01 09:46:00,80.9,74.5,29.99,SE,138,6.0,6.0,81,0.00,CLR,,0.00,WeatherDisplay:10.37,2013-11-01 13:46:00,
2013-11-01 09:51:00,81.3,74.5,29.99,SE,140,3.8,5.8,80,0.00,CLR,,0.00,WeatherDisplay:10.37,2013-11-01 13:51:00,
2013-11-01 09:56:00,81.7,74.5,29.99,ESE,108,3.0,3.5,79,0.00,CLR,,0.00,WeatherDisplay:10.37,2013-11-01 13:56:00,
2013-11-01 10:01:00,82.1,74.6,29.99,ESE,123,4.7,8.1,78,0.00,CLR,,0.00,WeatherDisplay:10.37,2013-11-01 14:01:00,
2013-11-01 10:06:00,82.2,74.7,29.99,SE,142,3.3,4.6,78,0.00,CLR,,0.00,WeatherDisplay:10.37,2013-11-01 14:06:00,
2013-11-01 10:11:00,82.5,74.2,29.99,SSE,150,3.0,5.8,76,0.00,CLR,,0.00,WeatherDisplay:10.37,2013-11-01 14:11:00,
2013-11-01 10:16:00,82.5,73.8,29.99,SSE,167,4.6,5.8,75,0.00,CLR,,0.00,WeatherDisplay:10.37,2013-11-01 14:16:00,
2013-11-01 10:21:00,82.8,74.1,29.99,SE,130,2.0,4.6,75,0.00,CLR,,0.00,WeatherDisplay:10.37,2013-11-01 14:21:00,
2013-11-01 10:26:00,83.1,74.7,29.99,South,185,1.2,2.3,76,0.00,CLR,,0.00,WeatherDisplay:10.37,2013-11-01 14:26:00,
2013-11-01 10:31:00,83.4,74.2,29.99,SE,140,3.2,3.5,74,0.00,CLR,,0.00,WeatherDisplay:10.37,2013-11-01 14:31:00,
2013-11-01 10:36:00,83.0,73.4,29.99,SSE,165,3.6,8.1,73,0.00,CLR,,0.00,WeatherDisplay:10.37,2013-11-01 14:36:00,
2013-11-01 10:41:00,82.8,73.7,29.99,South,188,2.3,2.3,74,0.00,CLR,,0.00,WeatherDisplay:10.37,2013-11-01 14:41:00,
2013-11-01 10:46:00,82.7,73.6,29.99,SSE,161,5.0,5.0,74,0.00,CLR,,0.00,WeatherDisplay:10.37,2013-11-01 14:46:00,
2013-11-01 10:51:00,83.2,74.0,29.99,SSE,165,2.0,3.5,74,0.00,CLR,,0.00,WeatherDisplay:10.37,2013-11-01 14:51:00,
2013-11-01 10:56:00,83.6,74.0,29.98,ESE,115,2.9,8.0,73,0.00,CLR,,0.00,WeatherDisplay:10.37,2013-11-01 14:56:00,
2013-11-01 11:01:00,83.8,74.2,29.98,SE,146,3.0,3.5,73,0.00,CLR,,0.00,WeatherDisplay:10.37,2013-11-01 15:01:00,
2013-11-01 11:06:00,83.9,74.3,29.98,SE,127,0.7,4.0,73,0.00,CLR,,0.00,WeatherDisplay:10.37,2013-11-01 15:06:00,
2013-11-01 11:12:00,84.0,74.4,29.98,South,169,4.2,4.2,73,0.00,CLR,,0.00,WeatherDisplay:10.37,2013-11-01 15:12:00,
2013-11-01 11:17:00,84.3,73.9,29.98,SE,134,3.9,5.8,71,0.00,CLR,,0.00,WeatherDisplay:10.37,2013-11-01 15:17:00,
2013-11-01 11:22:00,84.1,74.1,29.98,SE,140,2.2,4.6,72,0.00,CLR,,0.00,WeatherDisplay:10.37,2013-11-01 15:22:00,
2013-11-01 11:27:00,84.2,73.3,29.98,SSE,153,4.7,6.9,70,0.00,CLR,,0.00,WeatherDisplay:10.37,2013-11-01 15:27:00,
2013-11-01 11:32:00,84.3,74.7,29.98,SE,140,4.5,6.9,73,0.00,CLR,,0.00,WeatherDisplay:10.37,2013-11-01 15:32:00,
2013-11-01 11:37:00,84.3,73.9,29.98,SE,131,5.8,8.1,71,0.00,CLR,,0.00,WeatherDisplay:10.37,2013-11-01 15:37:00,
2013-11-01 11:42:00,84.8,74.3,29.98,SSW,207,3.2,6.0,71,0.00,CLR,,0.00,WeatherDisplay:10.37,2013-11-01 15:42:00,
2013-11-01 11:47:00,85.0,73.7,29.97,South,175,5.9,9.2,69,0.00,CLR,,0.00,WeatherDisplay:10.37,2013-11-01 15:47:00,
2013-11-01 11:52:00,85.3,74.4,29.97,SE,136,6.3,6.9,70,0.00,CLR,,0.00,WeatherDisplay:10.37,2013-11-01 15:52:00,
2013-11-01 11:57:00,85.1,73.8,29.97,South,171,5.6,8.1,69,0.00,CLR,,0.00,WeatherDisplay:10.37,2013-11-01 15:57:00,
2013-11-01 12:02:00,84.8,74.3,29.97,ESE,120,6.3,8.1,71,0.00,CLR,,0.00,WeatherDisplay:10.37,2013-11-01 16:02:00,
2013-11-01 12:07:00,84.6,74.6,29.96,SE,136,6.0,10.4,72,0.00,CLR,,0.00,WeatherDisplay:10.37,2013-11-01 16:07:00,
2013-11-01 12:12:00,84.7,74.3,29.96,SE,146,2.8,9.2,71,0.00,CLR,,0.00,WeatherDisplay:10.37,2013-11-01 16:12:00,
2013-11-01 12:17:00,84.8,73.1,29.96,SE,140,5.8,6.9,68,0.00,CLR,,0.00,WeatherDisplay:10.37,2013-11-01 16:17:00,
2013-11-01 12:22:00,84.8,73.5,29.96,SSE,153,5.2,9.2,69,0.00,CLR,,0.00,WeatherDisplay:10.37,2013-11-01 16:22:00,
2013-11-01 12:27:00,84.7,73.8,29.96,SSE,158,6.6,9.2,70,0.00,CLR,,0.00,WeatherDisplay:10.37,2013-11-01 16:27:00,
2013-11-01 12:32:00,84.4,73.5,29.95,SE,124,2.8,3.5,70,0.00,CLR,,0.00,WeatherDisplay:10.37,2013-11-01 16:32:00,
2013-11-01 12:37:00,84.8,73.9,29.95,SE,125,3.7,5.8,70,0.00,CLR,,0.00,WeatherDisplay:10.37,2013-11-01 16:37:00,
2013-11-01 12:42:00,84.9,74.4,29.95,SE,129,5.2,5.8,71,0.00,CLR,,0.00,WeatherDisplay:10.37,2013-11-01 16:42:00,
2013-11-01 12:47:00,84.1,74.5,29.95,South,173,4.1,4.1,73,0.00,CLR,,0.00,WeatherDisplay:10.37,2013-11-01 16:47:00,
2013-11-01 12:52:00,83.8,74.6,29.95,SSE,161,3.0,3.5,74,0.00,CLR,,0.00,WeatherDisplay:10.37,2013-11-01 16:52:00,
2013-11-01 12:57:00,84.1,74.1,29.94,South,169,6.5,10.4,72,0.00,CLR,,0.00,WeatherDisplay:10.37,2013-11-01 16:57:00,
2013-11-01 13:02:00,84.3,73.9,29.94,SE,145,8.4,9.2,71,0.00,CLR,,0.00,WeatherDisplay:10.37,2013-11-01 17:02:00,
2013-11-01 13:07:00,84.2,74.2,29.94,SE,135,4.0,6.9,72,0.00,CLR,,0.00,WeatherDisplay:10.37,2013-11-01 17:07:00,
2013-11-01 13:12:00,83.9,74.7,29.94,SE,146,3.5,5.8,74,0.00,CLR,,0.00,WeatherDisplay:10.37,2013-11-01 17:12:00,
2013-11-01 13:17:00,84.3,74.3,29.93,SE,128,5.2,9.2,72,0.00,CLR,,0.00,WeatherDisplay:10.37,2013-11-01 17:17:00,
2013-11-01 13:22:00,84.6,74.6,29.93,SE,131,3.0,5.0,72,0.00,CLR,,0.00,WeatherDisplay:10.37,2013-11-01 17:22:00,
2013-11-01 13:27:00,84.8,73.5,29.93,ESE,122,3.7,4.6,69,0.00,CLR,,0.00,WeatherDisplay:10.37,2013-11-01 17:27:00,
2013-11-01 13:32:00,84.4,73.5,29.93,SSE,154,3.5,5.8,70,0.00,CLR,,0.00,WeatherDisplay:10.37,2013-11-01 17:32:00,
2013-11-01 13:37:00,84.1,73.7,29.92,South,187,1.3,3.5,71,0.00,CLR,,0.00,WeatherDisplay:10.37,2013-11-01 17:37:00,
2013-11-01 13:42:00,84.1,73.7,29.92,ESE,111,6.0,6.9,71,0.00,CLR,,0.00,WeatherDisplay:10.37,2013-11-01 17:42:00,
2013-11-01 13:47:00,84.4,73.5,29.92,SE,135,5.9,10.4,70,0.00,CLR,,0.00,WeatherDisplay:10.37,2013-11-01 17:47:00,
2013-11-01 13:52:00,84.6,72.9,29.92,East,101,7.5,11.5,68,0.00,CLR,,0.00,WeatherDisplay:10.37,2013-11-01 17:52:00,
2013-11-01 13:57:00,84.9,73.6,29.92,SSE,151,5.7,5.7,69,0.00,CLR,,0.00,WeatherDisplay:10.37,2013-11-01 17:57:00,
2013-11-01 14:02:00,85.2,73.0,29.91,SE,133,5.9,10.4,67,0.00,CLR,,0.00,WeatherDisplay:10.37,2013-11-01 18:02:00,
2013-11-01 14:07:00,85.0,73.7,29.91,South,175,1.6,4.6,69,0.00,CLR,,0.00,WeatherDisplay:10.37,2013-11-01 18:07:00,
2013-11-01 14:12:00,85.2,73.9,29.91,SSE,152,3.2,4.6,69,0.00,CLR,,0.00,WeatherDisplay:10.37,2013-11-01 18:12:00,
2013-11-01 14:17:00,84.9,73.6,29.91,SSE,150,6.3,8.1,69,0.00,CLR,,0.00,WeatherDisplay:10.37,2013-11-01 18:17:00,
2013-11-01 14:22:00,84.7,73.8,29.90,SE,131,6.1,8.1,70,0.00,CLR,,0.00,WeatherDisplay:10.37,2013-11-01 18:22:00,
2013-11-01 14:27:00,85.0,74.1,29.90,SE,134,3.1,5.0,70,0.00,CLR,,0.00,WeatherDisplay:10.37,2013-11-01 18:27:00,
2013-11-01 14:32:00,85.4,74.5,29.90,SE,146,5.4,5.8,70,0.00,CLR,,0.00,WeatherDisplay:10.37,2013-11-01 18:32:00,
2013-11-01 14:37:00,85.5,74.2,29.90,SE,135,6.8,9.2,69,0.00,CLR,,0.00,WeatherDisplay:10.37,2013-11-01 18:37:00,
2013-11-01 14:42:00,85.0,73.7,29.90,SE,142,6.1,6.9,69,0.00,CLR,,0.00,WeatherDisplay:10.37,2013-11-01 18:42:00,
2013-11-01 14:47:00,84.7,73.8,29.90,SSE,165,3.6,5.8,70,0.00,CLR,,0.00,WeatherDisplay:10.37,2013-11-01 18:47:00,
2013-11-01 14:52:00,84.7,74.3,29.90,South,169,1.9,5.0,71,0.00,CLR,,0.00,WeatherDisplay:10.37,2013-11-01 18:52:00,
2013-11-01 14:57:00,84.7,73.4,29.89,SE,144,5.2,5.2,69,0.00,CLR,,0.00,WeatherDisplay:10.37,2013-11-01 18:57:00,
2013-11-01 15:02:00,84.6,74.2,29.89,SE,138,3.3,4.6,71,0.00,CLR,,0.00,WeatherDisplay:10.37,2013-11-01 19:02:00,
2013-11-01 15:07:00,84.3,74.3,29.89,ESE,108,4.2,8.1,72,0.00,CLR,,0.00,WeatherDisplay:10.37,2013-11-01 19:07:00,
2013-11-01 15:12:00,84.0,74.4,29.89,East,80,5.1,5.8,73,0.00,CLR,,0.00,WeatherDisplay:10.37,2013-11-01 19:12:00,
2013-11-01 15:17:00,83.8,74.6,29.89,SE,125,8.1,10.4,74,0.00,CLR,,0.00,WeatherDisplay:10.37,2013-11-01 19:17:00,
2013-11-01 15:22:00,83.8,75.0,29.89,ESE,123,3.8,8.1,75,0.00,CLR,,0.00,WeatherDisplay:10.37,2013-11-01 19:22:00,
2013-11-01 15:27:00,84.1,74.5,29.89,SSE,155,5.3,6.9,73,0.00,CLR,,0.00,WeatherDisplay:10.37,2013-11-01 19:27:00,
2013-11-01 15:32:00,84.3,74.7,29.89,ENE,71,3.8,6.9,73,0.00,CLR,,0.00,WeatherDisplay:10.37,2013-11-01 19:32:00,
2013-11-01 15:37:00,84.3,74.7,29.89,SSE,151,4.8,8.1,73,0.00,CLR,,0.00,WeatherDisplay:10.37,2013-11-01 19:37:00,
2013-11-01 15:42:00,84.5,74.1,29.89,South,189,3.3,5.8,71,0.00,CLR,,0.00,WeatherDisplay:10.37,2013-11-01 19:42:00,
2013-11-01 15:47:00,84.5,74.1,29.89,ESE,109,6.5,9.2,71,0.00,CLR,,0.00,WeatherDisplay:10.37,2013-11-01 19:47:00,
2013-11-01 15:52:00,84.7,74.3,29.89,ESE,123,4.6,6.9,71,0.00,CLR,,0.00,WeatherDisplay:10.37,2013-11-01 19:52:00,
2013-11-01 15:57:00,84.7,74.3,29.89,SE,136,3.9,5.8,71,0.00,CLR,,0.00,WeatherDisplay:10.37,2013-11-01 19:57:00,
2013-11-01 16:02:00,84.7,74.7,29.88,ESE,122,4.9,8.1,72,0.00,CLR,,0.00,WeatherDisplay:10.37,2013-11-01 20:02:00,
2013-11-01 16:07:00,84.8,74.8,29.88,ESE,106,3.8,6.9,72,0.00,CLR,,0.00,WeatherDisplay:10.37,2013-11-01 20:07:00,
2013-11-01 16:12:00,85.1,74.6,29.88,SSE,148,4.2,6.9,71,0.00,CLR,,0.00,WeatherDisplay:10.37,2013-11-01 20:12:00,
2013-11-01 16:17:00,85.3,74.8,29.88,East,88,4.4,8.0,71,0.00,CLR,,0.00,WeatherDisplay:10.37,2013-11-01 20:17:00,
2013-11-01 16:22:00,85.1,73.8,29.88,SE,146,5.9,10.4,69,0.00,CLR,,0.00,WeatherDisplay:10.37,2013-11-01 20:22:00,
2013-11-01 16:27:00,85.1,73.8,29.88,SE,146,5.0,8.1,69,0.00,CLR,,0.00,WeatherDisplay:10.37,2013-11-01 20:27:00,
2013-11-01 16:32:00,84.9,74.4,29.88,SE,136,3.1,5.0,71,0.00,CLR,,0.00,WeatherDisplay:10.37,2013-11-01 20:32:00,
2013-11-01 16:37:00,84.7,74.3,29.88,SE,126,3.1,5.8,71,0.00,CLR,,0.00,WeatherDisplay:10.37,2013-11-01 20:37:00,
2013-11-01 16:42:00,84.5,74.9,29.88,SSE,150,2.3,3.5,73,0.00,CLR,,0.00,WeatherDisplay:10.37,2013-11-01 20:42:00,
2013-11-01 16:47:00,84.4,74.8,29.88,SE,146,4.6,8.1,73,0.00,CLR,,0.00,WeatherDisplay:10.37,2013-11-01 20:47:00,
2013-11-01 16:52:00,84.2,74.6,29.88,SSE,168,2.6,4.6,73,0.00,CLR,,0.00,WeatherDisplay:10.37,2013-11-01 20:52:00,
2013-11-01 16:57:00,84.1,74.1,29.88,SSE,155,2.5,3.5,72,0.00,CLR,,0.00,WeatherDisplay:10.37,2013-11-01 20:57:00,
2013-11-01 17:02:00,84.2,74.2,29.88,SE,132,4.3,4.6,72,0.00,CLR,,0.00,WeatherDisplay:10.37,2013-11-01 21:02:00,
2013-11-01 17:07:00,84.0,74.0,29.88,ESE,106,6.4,8.1,72,0.00,CLR,,0.00,WeatherDisplay:10.37,2013-11-01 21:07:00,
2013-11-01 17:12:00,83.9,74.3,29.88,SE,133,1.5,2.3,73,0.00,CLR,,0.00,WeatherDisplay:10.37,2013-11-01 21:12:00,
2013-11-01 17:17:00,83.9,74.3,29.88,SSE,150,4.6,8.1,73,0.00,CLR,,0.00,WeatherDisplay:10.37,2013-11-01 21:17:00,
2013-11-01 17:23:00,83.9,74.3,29.88,SE,128,3.0,3.5,73,0.00,CLR,,0.00,WeatherDisplay:10.37,2013-11-01 21:23:00,
2013-11-01 17:28:00,83.9,74.3,29.88,SE,135,4.6,5.0,73,0.00,CLR,,0.00,WeatherDisplay:10.37,2013-11-01 21:28:00,
2013-11-01 17:33:00,83.8,73.8,29.88,SE,133,5.9,11.5,72,0.00,CLR,,0.00,WeatherDisplay:10.37,2013-11-01 21:33:00,
2013-11-01 17:38:00,83.6,74.0,29.88,SE,140,4.1,6.9,73,0.00,CLR,,0.00,WeatherDisplay:10.37,2013-11-01 21:38:00,
2013-11-01 17:43:00,83.4,74.6,29.88,SSE,148,1.8,3.5,75,0.00,CLR,,0.00,WeatherDisplay:10.37,2013-11-01 21:43:00,
2013-11-01 17:48:00,83.2,74.0,29.88,ESE,105,4.0,4.6,74,0.00,CLR,,0.00,WeatherDisplay:10.37,2013-11-01 21:48:00,
2013-11-01 17:53:00,83.0,73.9,29.88,ESE,104,5.2,9.0,74,0.00,CLR,,0.00,WeatherDisplay:10.37,2013-11-01 21:53:00,
2013-11-01 17:58:00,82.8,74.1,29.89,SE,146,3.7,3.7,75,0.00,CLR,,0.00,WeatherDisplay:10.37,2013-11-01 21:58:00,
2013-11-01 18:03:00,82.5,74.2,29.89,ESE,111,3.7,4.6,76,0.00,CLR,,0.00,WeatherDisplay:10.37,2013-11-01 22:03:00,
2013-11-01 18:08:00,82.3,73.6,29.89,SE,144,1.9,3.5,75,0.00,CLR,,0.00,WeatherDisplay:10.37,2013-11-01 22:08:00,
2013-11-01 18:13:00,82.1,73.8,29.89,SE,144,2.1,3.5,76,0.00,CLR,,0.00,WeatherDisplay:10.37,2013-11-01 22:13:00,
2013-11-01 18:18:00,82.0,74.1,29.89,ESE,121,1.3,3.5,77,0.00,CLR,,0.00,WeatherDisplay:10.37,2013-11-01 22:18:00,
2013-11-01 18:23:00,81.8,73.9,29.89,ESE,121,0.1,2.3,77,0.00,CLR,,0.00,WeatherDisplay:10.37,2013-11-01 22:23:00,
2013-11-01 18:28:00,81.6,73.7,29.89,SE,129,1.3,2.3,77,0.00,CLR,,0.00,WeatherDisplay:10.37,2013-11-01 22:28:00,
2013-11-01 18:33:00,81.4,73.5,29.90,SE,130,2.3,4.6,77,0.00,CLR,,0.00,WeatherDisplay:10.37,2013-11-01 22:33:00,
2013-11-01 18:38:00,81.2,73.3,29.89,SE,131,2.7,3.5,77,0.00,CLR,,0.00,WeatherDisplay:10.37,2013-11-01 22:38:00,
2013-11-01 18:43:00,81.1,73.6,29.90,SE,131,0.2,1.2,78,0.00,CLR,,0.00,WeatherDisplay:10.37,2013-11-01 22:43:00,
2013-11-01 18:48:00,80.8,73.3,29.90,SE,145,5.0,5.8,78,0.00,CLR,,0.00,WeatherDisplay:10.37,2013-11-01 22:48:00,
2013-11-01 18:53:00,80.6,73.5,29.90,SE,145,0.8,2.3,79,0.00,CLR,,0.00,WeatherDisplay:10.37,2013-11-01 22:53:00,
2013-11-01 18:58:00,80.5,73.4,29.90,SE,145,2.7,3.5,79,0.00,CLR,,0.00,WeatherDisplay:10.37,2013-11-01 22:58:00,
2013-11-01 19:03:00,80.4,73.7,29.90,SE,144,0.0,1.2,80,0.00,CLR,,0.00,WeatherDisplay:10.37,2013-11-01 23:03:00,
2013-11-01 19:08:00,80.3,73.6,29.90,SE,142,3.1,4.6,80,0.00,CLR,,0.00,WeatherDisplay:10.37,2013-11-01 23:08:00,
2013-11-01 19:13:00,80.1,73.4,29.90,SE,142,0.9,3.5,80,0.00,CLR,,0.00,WeatherDisplay:10.37,2013-11-01 23:13:00,
2013-11-01 19:18:00,80.0,73.6,29.90,SE,142,0.0,3.5,81,0.00,CLR,,0.00,WeatherDisplay:10.37,2013-11-01 23:18:00,
2013-11-01 19:23:00,79.9,73.5,29.91,SE,142,1.9,3.5,81,0.00,CLR,,0.00,WeatherDisplay:10.37,2013-11-01 23:23:00,
2013-11-01 19:28:00,79.8,73.4,29.91,SE,142,1.9,3.5,81,0.00,CLR,,0.00,WeatherDisplay:10.37,2013-11-01 23:28:00,
2013-11-01 19:33:00,79.7,73.3,29.91,SE,142,3.3,3.5,81,0.00,CLR,,0.00,WeatherDisplay:10.37,2013-11-01 23:33:00,
2013-11-01 19:38:00,79.6,73.3,29.91,SE,142,2.4,3.5,81,0.00,CLR,,0.00,WeatherDisplay:10.37,2013-11-01 23:38:00,
2013-11-01 19:43:00,79.6,73.6,29.91,SE,142,4.6,4.6,82,0.00,CLR,,0.00,WeatherDisplay:10.37,2013-11-01 23:43:00,
2013-11-01 19:48:00,79.5,73.5,29.91,SE,142,2.4,3.5,82,0.00,CLR,,0.00,WeatherDisplay:10.37,2013-11-01 23:48:00,
2013-11-01 19:53:00,79.4,73.4,29.91,SE,142,1.3,3.5,82,0.00,CLR,,0.00,WeatherDisplay:10.37,2013-11-01 23:53:00,
2013-11-01 19:58:00,79.3,73.3,29.91,SE,142,0.3,1.2,82,0.00,CLR,,0.00,WeatherDisplay:10.37,2013-11-01 23:58:00,
2013-11-01 20:03:00,79.2,73.6,29.92,SE,142,0.3,2.3,83,0.00,CLR,,0.00,WeatherDisplay:10.37,2013-11-02 00:03:00,
2013-11-01 20:08:00,79.1,73.5,29.92,SE,142,0.6,2.3,83,0.00,CLR,,0.00,WeatherDisplay:10.37,2013-11-02 00:08:00,
2013-11-01 20:13:00,79.0,73.4,29.92,SE,142,0.8,2.3,83,0.00,CLR,,0.00,WeatherDisplay:10.37,2013-11-02 00:13:00,
2013-11-01 20:18:00,78.9,73.3,29.92,SE,143,0.7,2.3,83,0.00,CLR,,0.00,WeatherDisplay:10.37,2013-11-02 00:18:00,
2013-11-01 20:23:00,78.8,73.2,29.92,SE,143,0.0,1.2,83,0.00,CLR,,0.00,WeatherDisplay:10.37,2013-11-02 00:23:00,
2013-11-01 20:28:00,78.6,73.4,29.92,SE,143,0.0,0.0,84,0.00,CLR,,0.00,WeatherDisplay:10.37,2013-11-02 00:28:00,
2013-11-01 20:33:00,78.4,73.2,29.92,SE,143,0.2,1.2,84,0.00,CLR,,0.00,WeatherDisplay:10.37,2013-11-02 00:33:00,
2013-11-01 20:38:00,78.3,73.1,29.92,SE,143,0.0,0.0,84,0.00,CLR,,0.00,WeatherDisplay:10.37,2013-11-02 00:38:00,
2013-11-01 20:43:00,78.2,73.0,29.93,SE,143,0.0,0.0,84,0.00,CLR,,0.00,WeatherDisplay:10.37,2013-11-02 00:43:00,
2013-11-01 20:48:00,78.1,73.2,29.93,SE,143,0.0,1.2,85,0.00,CLR,,0.00,WeatherDisplay:10.37,2013-11-02 00:48:00,
2013-11-01 20:53:00,77.9,73.0,29.93,SE,143,0.0,0.0,85,0.00,CLR,,0.00,WeatherDisplay:10.37,2013-11-02 00:53:00,
2013-11-01 20:58:00,77.8,73.3,29.93,SE,143,0.0,0.0,86,0.00,CLR,,0.00,WeatherDisplay:10.37,2013-11-02 00:58:00,
2013-11-01 21:03:00,77.7,73.2,29.93,SE,143,0.0,0.0,86,0.00,CLR,,0.00,WeatherDisplay:10.37,2013-11-02 01:03:00,
2013-11-01 21:08:00,77.4,73.2,29.93,SE,143,0.0,0.0,87,0.00,CLR,,0.00,WeatherDisplay:10.37,2013-11-02 01:08:00,
2013-11-01 21:13:00,77.2,73.0,29.93,SE,143,0.0,0.0,87,0.00,CLR,,0.00,WeatherDisplay:10.37,2013-11-02 01:13:00,
2013-11-01 21:18:00,77.1,72.9,29.93,SE,143,0.0,0.0,87,0.00,CLR,,0.00,WeatherDisplay:10.37,2013-11-02 01:18:00,
2013-11-01 21:23:00,76.9,72.7,29.94,SE,143,0.0,0.0,87,0.00,CLR,,0.00,WeatherDisplay:10.37,2013-11-02 01:23:00,
2013-11-01 21:28:00,76.9,73.1,29.93,SE,143,0.0,1.2,88,0.00,CLR,,0.00,WeatherDisplay:10.37,2013-11-02 01:28:00,
2013-11-01 21:33:00,76.9,73.1,29.93,SE,143,0.0,0.0,88,0.00,CLR,,0.00,WeatherDisplay:10.37,2013-11-02 01:33:00,
2013-11-01 21:38:00,76.8,73.0,29.93,SE,143,0.0,0.0,88,0.00,CLR,,0.00,WeatherDisplay:10.37,2013-11-02 01:38:00,
2013-11-01 21:43:00,76.7,72.9,29.94,SE,143,0.0,0.0,88,0.00,CLR,,0.00,WeatherDisplay:10.37,2013-11-02 01:43:00,
2013-11-01 21:48:00,76.6,72.8,29.93,SE,143,0.0,0.0,88,0.00,CLR,,0.00,WeatherDisplay:10.37,2013-11-02 01:48:00,
2013-11-01 21:53:00,76.6,73.1,29.94,SE,143,0.0,0.0,89,0.00,CLR,,0.00,WeatherDisplay:10.37,2013-11-02 01:53:00,
2013-11-01 21:58:00,76.4,72.9,29.94,SE,143,0.0,0.0,89,0.00,CLR,,0.00,WeatherDisplay:10.37,2013-11-02 01:58:00,
2013-11-01 22:03:00,76.1,73.0,29.94,SE,143,0.0,0.0,90,0.00,CLR,,0.00,WeatherDisplay:10.37,2013-11-02 02:03:00,
2013-11-01 22:08:00,75.9,72.8,29.94,SE,143,0.0,0.0,90,0.00,CLR,,0.00,WeatherDisplay:10.37,2013-11-02 02:08:00,
2013-11-01 22:13:00,75.7,72.6,29.94,SE,143,0.0,0.0,90,0.00,CLR,,0.00,WeatherDisplay:10.37,2013-11-02 02:13:00,
2013-11-01 22:18:00,75.5,72.7,29.94,SE,143,0.0,0.0,91,0.00,CLR,,0.00,WeatherDisplay:10.37,2013-11-02 02:18:00,
2013-11-01 22:23:00,75.3,72.2,29.94,SE,143,0.0,0.0,90,0.00,CLR,,0.00,WeatherDisplay:10.37,2013-11-02 02:23:00,
2013-11-01 22:29:00,75.1,72.0,29.94,SE,143,0.0,0.0,90,0.00,CLR,,0.00,WeatherDisplay:10.37,2013-11-02 02:29:00,
2013-11-01 22:34:00,75.1,72.3,29.95,SE,143,0.0,0.0,91,0.00,CLR,,0.00,WeatherDisplay:10.37,2013-11-02 02:34:00,
2013-11-01 22:39:00,75.0,72.2,29.95,SE,143,0.0,0.0,91,0.00,CLR,,0.00,WeatherDisplay:10.37,2013-11-02 02:39:00,
2013-11-01 22:44:00,74.9,72.4,29.94,SE,143,0.0,0.0,92,0.00,CLR,,0.00,WeatherDisplay:10.37,2013-11-02 02:44:00,
2013-11-01 22:49:00,74.8,72.3,29.94,SE,143,0.0,0.0,92,0.00,CLR,,0.00,WeatherDisplay:10.37,2013-11-02 02:49:00,
2013-11-01 22:54:00,74.6,72.1,29.94,SE,143,0.0,0.0,92,0.00,CLR,,0.00,WeatherDisplay:10.37,2013-11-02 02:54:00,
2013-11-01 22:59:00,74.5,72.0,29.94,SE,143,0.0,0.0,92,0.00,CLR,,0.00,WeatherDisplay:10.37,2013-11-02 02:59:00,
2013-11-01 23:04:00,74.4,72.2,29.94,SE,143,0.0,0.0,93,0.00,CLR,,0.00,WeatherDisplay:10.37,2013-11-02 03:04:00,
2013-11-01 23:09:00,74.3,72.1,29.94,SE,143,0.0,0.0,93,0.00,CLR,,0.00,WeatherDisplay:10.37,2013-11-02 03:09:00,
2013-11-01 23:14:00,74.1,71.9,29.94,SE,143,0.0,0.0,93,0.00,CLR,,0.00,WeatherDisplay:10.37,2013-11-02 03:14:00,
2013-11-01 23:19:00,74.1,71.9,29.94,SE,143,0.0,0.0,93,0.00,CLR,,0.00,WeatherDisplay:10.37,2013-11-02 03:19:00,
2013-11-01 23:24:00,73.9,71.7,29.94,SE,143,0.0,0.0,93,0.00,CLR,,0.00,WeatherDisplay:10.37,2013-11-02 03:24:00,
2013-11-01 23:29:00,73.8,72.0,29.94,SE,143,0.0,0.0,94,0.00,CLR,,0.00,WeatherDisplay:10.37,2013-11-02 03:29:00,
2013-11-01 23:34:00,73.6,71.8,29.94,SE,143,0.0,0.0,94,0.00,CLR,,0.00,WeatherDisplay:10.37,2013-11-02 03:34:00,
2013-11-01 23:39:00,73.6,71.8,29.94,SE,143,0.0,0.0,94,0.00,CLR,,0.00,WeatherDisplay:10.37,2013-11-02 03:39:00,
2013-11-01 23:44:00,73.4,71.6,29.94,SE,143,0.0,0.0,94,0.00,CLR,,0.00,WeatherDisplay:10.37,2013-11-02 03:44:00,
2013-11-01 23:49:00,73.4,71.6,29.94,SE,143,0.0,0.0,94,0.00,CLR,,0.00,WeatherDisplay:10.37,2013-11-02 03:49:00,
2013-11-01 23:54:00,73.3,71.5,29.94,SE,143,0.0,0.0,94,0.00,CLR,,0.00,WeatherDisplay:10.37,2013-11-02 03:54:00,
2013-11-01 23:59:00,73.2,71.4,29.94,SE,143,0.0,0.0,94,0.00,CLR,,0.00,WeatherDisplay:10.37,2013-11-02 03:59:00,